Regional Weather Roundup
Issued by NWS

Home | Current Version | Previous Version | Graphics & Text | Print | Product List | Glossary On
Versions: 1 2 3 4 5 6 7 8 9 10 11 12 13 14 15 16 17 18 19 20 21 22 23 24 25 26 27 28 29 30 31 32 33 34 35 36 37 38 39 40 41 42 43 44 45 46 47 48 49 50
000
ASUS43 KBIS 240010
RWRND

NORTH DAKOTA REGIONAL WEATHER ROUNDUP
NATIONAL WEATHER SERVICE BISMARCK ND
700 PM CDT WED JUL 23 2014

NOTE: "FAIR" INDICATES FEW OR NO CLOUDS BELOW 12,000 FEET WITH NO
SIGNIFICANT WEATHER AND/OR OBSTRUCTIONS TO VISIBILITY.


NDZ001>003-009>011-017-240100-
NORTHWEST NORTH DAKOTA

CITY           SKY/WX    TMP DP  RH WIND       PRES   REMARKS
WILLISTON      MOSUNNY   86  61  42 SE17G25   30.05F
6HR MIN TEMP:  83; 6HR MAX TEMP:  89;

MINOT          MOSUNNY   76  66  71 E16       30.13F
MINOT AFB      MOSUNNY   75  68  78 E16       30.13F
$$

NDZ018>021-031>035-040>046-240100-
SOUTHWEST NORTH DAKOTA

CITY           SKY/WX    TMP DP  RH WIND       PRES   REMARKS
BISMARCK       SUNNY     82  60  47 SE17      30.13F
6HR MIN TEMP:  76; 6HR MAX TEMP:  84;

DICKINSON      MOSUNNY   79  62  56 SE18G26   30.08F
GARRISON         N/A     79  65  62 SE13      30.12F
6HR MIN TEMP:  76; 6HR MAX TEMP:  80;

HETTINGER ARPT SUNNY     81  59  47 SE23      30.08F
$$

NDZ004>008-012>016-024-026-027-054-240100-
NORTHEAST NORTH DAKOTA

CITY           SKY/WX    TMP DP  RH WIND       PRES   REMARKS
GRAND FORKS    MOSUNNY   74  59  59 NW5       30.21F
GRND FRKS AFB  SUNNY     73  59  62 N5        30.22F
DEVILS LAKE    PTSUNNY   73  57  56 E8        30.20F
$$

NDZ022-023-025-028>030-036>039-047>053-240100-
SOUTHEAST NORTH DAKOTA

CITY           SKY/WX    TMP DP  RH WIND       PRES   REMARKS
FARGO          SUNNY     76  57  51 NE8       30.20F
6HR MIN TEMP:  75; 6HR MAX TEMP:  79;

JAMESTOWN      SUNNY     77  57  50 S8        30.19F
$$



USA.gov is the U.S. government's official web portal to all federal, state and local government web resources and services.